Volver al catálogo

STARLINK-4632

ActivoComunicacionesSSO
NORAD 53679·PAYLOAD·🇺🇸 United States

Lanzado Aug 31, 2022 desde Vandenberg Space Force Base

Loading…

Próximos Pases (próximas 24 horas)

TLE

ActualizadoSource: CelesTrak SupGP

Época: Sep 15, 2026, 02:41 UTC

1 53679C 22105AH  26258.11229167  .00023826  00000+0  73952-3 0  2589
2 53679  97.2842 134.8643 0001753  96.0857 181.4520 15.33429913    16

Sigue STARLINK-4632 en tiempo real con AllMySat

Download on the App Store